LFOCLFLC

Guest
Details From LFOC - Chateaudun AB
To LFLC - Clermont-Ferrand_Auvergne
Flight Number -
Tags generated
Created
Modified
Stats Distance 156 nm / 288 km
Max Altitude 19,600 ft / 5,974 m
Waypoints 3
Social Downloads 0
Likes 0
Share VATSIM

Download

Looking for another format? Having issues loading an existing format? Contact us
Advertisement - Login to hide

Notes

Basic altitude profile: - Ascent Rate: 2500ft/min - Ascent Speed: 250kts - Cruise Altitude: 8000ft - Cruise Speed: 150kts - Descent Rate: 1500ft/min - Descent Speed: 250kts Options: - Use NATs: yes - Use PACOTS: no - Use low airways: yes - Use high airways: no

Route

LFOC DEPOM LFLC

ID Type Via Altitude Latitude Longitude Leg Dist Tot Dist Heading (true) Name
O LFOC APT - 0 ft / 0 m 48.05814˚ 1.37662˚ - 0 nm - Chateaudun AB
DEPOM FIX - 19,600 ft / 5,974 m 47.31778˚ 2.17917˚ 55 nm 55 nm 144° / 144° -
O LFLC APT - 0 ft / 0 m 45.78671˚ 3.16997˚ 100 nm 155 nm 156° / 156° Clermont-Ferrand_Auvergne

Altitude Profile

Advertisement - Login to hide

LFOC

Details ICAO LFOC
Name Chateaudun AB
Region France
Timezone Europe/Paris (UTC+2.0)
Stats Elevation 433 ft / 132 m (AMSL)
Location 48.058141° 1.376625°
Runways 1
Magnetic Variation 0.404° E

METAR

LFOC 262030Z AUTO 03004KT CAVOK 17/15 Q1015

Decode

TAF

Not found

Departure Runways

ID Width Length Bearing (true) Bearing (mag) Surface Threshold Offset Overrun Length
10 148 ft / 45 m 7,532 ft / 2,296 m 98.03° 97.63° Asphalt 0 ft / 0 m 673 ft / 205 m
28 148 ft / 45 m 7,532 ft / 2,296 m 278.06° 277.66° Asphalt 0 ft / 0 m 663 ft / 202 m

LFLC

Details ICAO LFLC (CFE)
Name Clermont-Ferrand_Auvergne
Region France
Timezone Europe/Paris (UTC+2.0)
Stats Elevation 1,089 ft / 332 m (AMSL)
Location 45.786712° 3.169967°
Runways 1
Magnetic Variation 1.035° E

METAR

LFLC 262030Z AUTO 22003KT CAVOK 18/13 Q1016 NOSIG

Decode

TAF

TAF AMD LFLC 261400Z 2615/2715 16010G20KT 9999 SCT050CB PROB30 TEMPO 2616/2619 TSRA BKN030CB BECMG 2619/2621 07005KT PROB30 TEMPO 2710/2712 SCT050CB PROB40 TEMPO 2712/2715 18015G25KT 4000 TSRA BKN020CB

Decode

Destination Runways

ID Width Length Bearing (true) Bearing (mag) Surface Threshold Offset Overrun Length
08 148 ft / 45 m 9,878 ft / 3,011 m 81.95° 80.92° Asphalt 0 ft / 0 m 0 ft / 0 m
26 148 ft / 45 m 9,878 ft / 3,011 m 261.98° 260.95° Asphalt 476 ft / 145 m 0 ft / 0 m

Approach Navaids

Runway Type Ident Frequency Range Bearing (true) Bearing (mag) Slope Elevation
26 Localiser CF 111.10 MHz 27 nm / 50 km 261.98° 260.95° - 1,089 ft / 332 m (AMSL)
26 Glidescope CF 111.10 MHz 27 nm / 50 km 261.98° 260.95° 3.00° 1,089 ft / 332 m (AMSL)
26 DME CF 111.10 MHz 27 nm / 50 km - - - 1,089 ft / 332 m (AMSL)

Popular Alternatives